IRIDIUM 124

Last updated on Fri Sep 11 2026 00:03:06 GMT+0000 (Coordinated Universal Time)

1 42810U 17039H 26253.53731293 .00000184 00000+0 48572-4 0 9998 2 42810 86.4428 254.6565 0002414 88.7627 271.3850 14.43278807487426
UTC large
Height (km)
Speed (km/s)
/
Latitude / Longitude
Inclination (degrees)
Orbital Period (minutes)
Azimuth
Elevation
Range (km)
Doppler Factor

Next 0 passes for location: London (51.5072 / 0.1276)

No passes found over London.
IRIDIUM 124